Regional Weather Roundup
Issued by NWS Kansas City/Pleasant Hill, MO

Home | Current Version | Previous Version | Text Only | Print | Product List | Glossary On
Versions: 1 2 3 4 5 6 7 8 9 10 11 12 13 14 15 16 17 18 19 20 21 22 23 24 25 26 27
000
ASUS43 KEAX 261310
RWREAX

WEATHER ROUNDUP FOR EASTERN KANSAS AND NORTHWEST MISSOURI
NATIONAL WEATHER SERVICE KANSAS CITY/PLEASANT HILL MO
800 AM CDT SAT MAY 26 2018

KSZ040-057-103>105-MOZ028-029-037-043-261400-
...KANSAS CITY METROPOLITAN AREA...

CITY           SKY/WX    TMP DP  RH WIND       PRES   REMARKS
K.C. INTL      MOSUNNY   73  67  81 SW7       29.83R
K.C. DOWNTOWN  SUNNY     76  65  68 SW7       29.82R
LEES SUMMIT    SUNNY     74  67  78 SW8       29.85R
OLATHE - IXD   SUNNY     74  66  76 SW6       29.85R
OLATHE - OJC   SUNNY     73  65  75 W7        29.84R
LAWRENCE       SUNNY     73  67  81 CALM      29.83S

$$

MOZ001>008-011>017-020>025-030>033-038>040-044>046-053-054-261400-
...NORTHERN AND CENTRAL MISSOURI...

CITY           SKY/WX    TMP DP  RH WIND       PRES   REMARKS
ST. JOSEPH     SUNNY     75  68  78 SW6       29.81R
MOSBY          SUNNY     72  66  83 CALM      29.83R
WARRENSBURG    SUNNY     72  66  83 S6        29.85R
WHITEMAN AFB   SUNNY     73  68  83 SW9       29.81R
CLINTON        NOT AVBL
SEDALIA        SUNNY     72  68  87 SW7       29.86S
WARSAW         NOT AVBL
CHILLICOTHE      N/A     75  68  78 S6        29.82R
KIRKSVILLE     MOSUNNY   74  69  85 SE9       29.83S

$$

MOZ041-047>049-056>058-063>065-088>090-097-261400-
...EASTERN AND SOUTHERN MISSOURI...

CITY           SKY/WX    TMP DP  RH WIND       PRES   REMARKS
ST. LOUIS INTL PTSUNNY   72  69  90 S8        29.85F
SPIRIT OF STL  SUNNY     71  69  93 S5        29.85F
COLUMBIA       SUNNY     74  68  81 SW6       29.85S
JEFFERSON CITY SUNNY     71  66  84 S5        29.86R
ROLLA          MOSUNNY   69  64  84 S7        29.89R
OSAGE BEACH    SUNNY     68  65  90 S5        29.88S
SPRINGFIELD    MOSUNNY   69  65  86 SW3       29.89R
BRANSON        MOSUNNY   66  66 100 CALM      29.93R FOG
JOPLIN         SUNNY     72  67  84 S8        29.89R
WEST PLAINS    MOSUNNY   70  66  87 CALM      29.91R

$$

IAZ060-094-KSZ022-034>040-054-083-096-NEZ052-066-093-261400-
...KANSAS...SOUTHEAST NEBRASKA AND IOWA...

CITY           SKY/WX    TMP DP  RH WIND       PRES   REMARKS
TOPEKA         SUNNY     73  67  81 S3        29.83R
MANHATTAN      SUNNY     72  66  81 SW5       29.83R
EMPORIA        SUNNY     74  66  76 SW3       29.85R
CHANUTE        SUNNY     72  69  90 S7        29.87R
WICHITA        SUNNY     70  66  87 SE6       29.86R
OMAHA          SUNNY     73  65  75 CALM      29.79R
LINCOLN        SUNNY     73  65  75 SW5       29.80R
FALLS CITY     MOSUNNY   77  67  71 W6        29.79S
LAMONI         SUNNY     74  67  78 SW9       29.79R
DES MOINES     MOSUNNY   73  67  81 S7        29.77R

$$





USA.gov is the U.S. government's official web portal to all federal, state and local government web resources and services.